Probability
0 0 0 0 0 0 0 0 0 0 0 0 0 3 6 3 3 10 10 19 23 10 16 13 13 16 13 13 13 13 10 10 10 10 6 3 3 6 6 3 3 3 6 6
0 0 0 0 0 0 0 0 0 0 0 0 0 3 6 3 3 6 10 10 10 10 16 16 13 13 16 10 16 10 13 10 6 6 6 3 3 3 3 3 3 3 6 6
0 0 0 0 0 0 0 0 0 0 0 3 0 3 6 3 6 3 10 10 13 10 10 16 13 10 13 13 10 16 13 6 6 6 6 6 0 0 0 0 0 3 3 6
0 0 0 0 0 0 0 0 0 0 0 0 0 0 3 3 6 6 6 10 10 6 10 10 13 13 13 16 19 6 10 6 3 3 6 6 3 0 0 0 0 0 0 3
0 0 0 0 0 0 0 0 0 0 0 0 0 0 0 3 3 3 6 10 10 6 10 10 16 13 19 19 19 13 6 3 0 0 0 0 3 3 0 0 0 3 3 3
0 0 0 0 0 0 0 0 0 0 0 0 0 0 0 3 3 3 6 19 13 10 3 3 10 13 13 16 19 13 6 6 3 0 0 0 0 0 0 0 0 0 0 0
0 0 0 0 0 0 0 0 0 0 0 0 0 0 0 0 3 0 6 13 10 10 6 6 10 10 10 13 16 16 10 3 3 0 0 0 0 0 0 0 0 0 0 0
0 0 0 0 0 0 0 0 0 0 0 0 0 0 0 0 0 0 6 13 6 3 3 10 3 10 10 10 13 16 10 3 3 10 3 3 6 3 3 0 0 0 0 0
0 0 0 0 0 0 0 0 0 0 0 0 0 0 0 0 6 0 10 10 6 3 6 6 6 6 10 10 10 13 10 10 13 10 3 0 3 6 6 3 0 0 0 0
0 0 0 0 0 0 0 0 0 0 0 0 0 0 0 0 3 6 10 10 6 3 6 6 6 3 13 10 13 19 19 10 6 6 6 6 6 6 6 6 3 3 0 0
0 0 0 0 0 0 0 0 0 0 0 0 0 0 0 0 0 6 6 6 6 0 3 3 3 6 6 10 10 10 10 6 3 3 3 3 0 0 3 3 3 3 0 0
0 0 0 0 0 0 0 0 0 0 0 0 0 0 0 0 0 3 6 3 0 0 0 0 3 3 6 10 6 3 3 3 3 3 3 3 0 0 0 3 3 0 0 0
0 0 0 0 0 0 0 0 0 0 0 0 0 0 0 0 0 3 3 0 0 0 0 3 3 3 6 6 6 3 3 3 3 6 6 6 0 0 0 3 0 0 0 0
0 0 0 0 0 0 0 0 0 0 0 0 0 0 0 0 0 0 3 0 0 0 3 3 3 3 6 6 6 6 0 0 3 6 6 6 3 0 0 0 0 0 0 0
0 0 0 0 0 0 0 0 0 0 0 0 0 0 0 0 0 0 3 0 0 0 0 3 3 3 3 6 6 6 3 3 3 6 6 6 3 0 0 0 0 0 0 0
0 0 0 0 0 0 0 0 0 0 0 0 0 0 0 0 0 0 3 0 0 0 0 3 3 3 6 3 3 3 3 3 6 3 3 6 3 3 0 0 0 0 0 0
0 0 0 0 0 0 0 0 0 0 0 0 0 0 0 3 3 3 3 3 0 0 0 0 3 3 3 3 3 0 0 0 0 0 3 3 3 3 3 3 0 0 0 0
0 0 0 0 0 0 0 0 0 0 0 6 6 0 0 0 0 0 0 0 3 0 0 0 3 0 0 3 0 0 0 0 0 0 0 0 0 3 3 3 0 0 0 0
0 0 0 0 0 0 0 0 0 0 0 0 0 0 0 0 3 0 0 0 0 0 0 0 0 0 0 3 0 0 0 0 0 0 0 0 0 0 0 3 0 0 0 0
0 0 0 0 0 0 0 0 0 0 0 0 0 0 0 0 6 3 0 3 0 0 0 3 0 0 3 3 0 0 0 0 0 0 0 0 0 0 0 0 0 0 0 0
0 0 0 0 0 0 0 0 0 0 0 0 0 0 0 0 0 0 0 0 3 3 3 3 3 3 3 3 0 0 0 0 0 0 0 0 0 0 0 0 0 0 0 0
0 0 0 0 0 0 0 0 0 0 0 0 0 0 0 0 0 0 0 3 3 3 3 0 3 6 6 3 0 0 0 0 0 0 0 0 0 0 0 0 0 0 0 0
0 0 0 0 0 0 0 0 0 0 0 0 0 0 0 0 0 0 0 3 3 3 3 0 3 3 6 6 3 0 0 0 0 0 0 0 0 0 0 0 0 0 0 0
0 0 0 0 0 0 0 0 0 0 0 0 0 0 0 0 0 0 0 3 3 3 0 3 3 3 3 3 6 3 0 0 0 0 0 0 0 0 0 0 0 0 0 0
0 0 0 0 0 0 0 0 0 0 0 0 0 0 0 0 0 0 0 3 3 3 0 0 3 3 3 3 3 6 3 3 3 0 0 0 0 0 0 0 0 0 0 0
0 0 0 0 0 0 0 0 0 0 0 0 0 0 0 0 0 0 0 3 3 3 0 0 3 3 3 3 3 3 3 3 3 3 0 0 0 0 0 0 0 0 0 0
Height
5847 5849 5850 5851 5852 5853 5853 5854 5855 5859 5860 5860 5860 5861 5862 5862 5862 5862 5863 5863 5863 5862 5861 5859 5858 5858 5857 5857 5856 5855 5853 5852 5851 5849 5848 5847 5846 5844 5842 5840 5838 5836 5835 5833
5843 5844 5846 5846 5847 5848 5849 5850 5852 5854 5855 5856 5856 5856 5858 5858 5859 5859 5859 5859 5859 5858 5857 5854 5854 5854 5853 5852 5852 5852 5850 5848 5847 5845 5845 5844 5842 5841 5839 5837 5834 5833 5832 5830
5838 5841 5840 5841 5842 5843 5844 5846 5848 5850 5850 5851 5852 5852 5854 5855 5855 5855 5855 5856 5856 5855 5853 5852 5851 5850 5850 5849 5848 5848 5846 5845 5843 5842 5841 5840 5839 5837 5835 5833 5831 5830 5828 5827
5832 5835 5835 5836 5837 5838 5840 5842 5843 5844 5845 5846 5848 5847 5850 5850 5850 5850 5851 5851 5851 5851 5850 5849 5848 5847 5846 5846 5845 5844 5843 5842 5840 5839 5837 5836 5835 5833 5832 5830 5828 5826 5825 5823
5829 5830 5830 5832 5834 5834 5836 5837 5838 5839 5839 5841 5842 5843 5845 5845 5846 5846 5846 5846 5847 5847 5847 5846 5845 5844 5843 5842 5841 5841 5840 5838 5837 5836 5834 5833 5831 5830 5828 5826 5824 5823 5821 5819
5825 5826 5826 5828 5830 5830 5831 5833 5833 5833 5834 5836 5838 5838 5839 5840 5841 5842 5842 5842 5843 5843 5843 5842 5841 5840 5838 5837 5837 5837 5836 5835 5834 5832 5831 5829 5828 5826 5824 5822 5821 5819 5817 5815
5820 5821 5822 5824 5825 5826 5826 5828 5828 5828 5829 5831 5833 5832 5834 5835 5837 5837 5837 5837 5838 5838 5839 5838 5837 5836 5835 5834 5834 5833 5833 5832 5831 5829 5828 5826 5824 5823 5821 5819 5817 5815 5813 5811
5815 5817 5818 5819 5820 5821 5822 5823 5824 5824 5825 5826 5827 5826 5829 5830 5831 5832 5832 5833 5833 5834 5834 5834 5833 5832 5832 5831 5831 5830 5829 5829 5827 5826 5824 5823 5821 5819 5817 5815 5813 5811 5809 5807
5811 5813 5815 5815 5816 5817 5817 5818 5819 5820 5820 5820 5821 5822 5824 5825 5826 5826 5827 5828 5829 5829 5830 5830 5829 5828 5828 5828 5827 5827 5826 5825 5824 5822 5821 5819 5817 5815 5813 5811 5809 5807 5805 5803
5805 5808 5810 5811 5812 5812 5813 5814 5814 5814 5815 5815 5816 5817 5819 5820 5820 5821 5822 5823 5825 5825 5825 5825 5825 5825 5825 5824 5824 5823 5822 5821 5819 5818 5816 5815 5813 5812 5810 5807 5805 5803 5801 5798
5800 5802 5804 5805 5806 5807 5808 5808 5808 5809 5810 5811 5811 5814 5814 5814 5815 5816 5817 5818 5819 5820 5820 5820 5820 5820 5820 5819 5819 5819 5818 5817 5815 5814 5812 5811 5809 5808 5806 5804 5801 5799 5796 5794
5795 5797 5797 5800 5801 5802 5803 5803 5804 5805 5806 5807 5807 5811 5809 5809 5809 5810 5812 5813 5814 5815 5815 5816 5816 5815 5815 5814 5814 5813 5813 5812 5811 5810 5808 5807 5805 5803 5801 5799 5797 5795 5792 5789
5791 5792 5792 5794 5797 5797 5797 5798 5799 5801 5801 5802 5802 5806 5804 5805 5805 5805 5806 5807 5808 5810 5810 5811 5811 5811 5810 5809 5809 5808 5807 5806 5806 5805 5803 5802 5800 5798 5797 5795 5793 5790 5788 5785
5786 5786 5788 5789 5790 5791 5791 5793 5794 5795 5796 5796 5797 5799 5800 5799 5800 5801 5801 5801 5802 5804 5805 5805 5805 5806 5806 5806 5805 5804 5803 5802 5801 5800 5799 5797 5796 5794 5792 5790 5788 5786 5783 5781
5780 5781 5782 5783 5784 5785 5786 5787 5789 5790 5791 5791 5792 5793 5794 5794 5794 5794 5795 5796 5796 5798 5798 5799 5800 5800 5801 5801 5800 5800 5797 5797 5796 5795 5794 5793 5792 5790 5788 5786 5783 5781 5779 5776
5773 5775 5776 5778 5779 5779 5780 5782 5783 5784 5784 5785 5786 5788 5788 5788 5788 5788 5789 5790 5791 5792 5793 5794 5795 5795 5795 5794 5794 5794 5793 5792 5791 5790 5789 5788 5787 5785 5783 5781 5779 5776 5774 5771
5766 5768 5770 5771 5772 5773 5775 5777 5777 5778 5779 5780 5781 5783 5782 5783 5783 5783 5783 5783 5784 5786 5787 5788 5788 5789 5788 5788 5788 5788 5787 5787 5786 5785 5784 5782 5781 5779 5778 5776 5773 5771 5768 5766
5759 5761 5762 5763 5766 5767 5771 5770 5770 5772 5773 5774 5774 5776 5777 5778 5778 5778 5777 5778 5778 5780 5780 5780 5781 5782 5782 5782 5782 5782 5781 5781 5780 5779 5778 5777 5775 5774 5772 5770 5768 5766 5763 5760
5752 5753 5755 5756 5758 5760 5762 5763 5764 5765 5766 5767 5768 5769 5770 5771 5772 5772 5772 5771 5771 5772 5773 5774 5775 5776 5776 5775 5775 5775 5775 5775 5774 5773 5772 5771 5769 5768 5766 5764 5762 5760 5757 5754
5745 5746 5748 5749 5751 5753 5756 5756 5757 5760 5760 5761 5761 5763 5764 5765 5766 5766 5766 5766 5766 5766 5767 5767 5768 5769 5769 5769 5769 5769 5769 5768 5768 5767 5766 5765 5763 5762 5760 5758 5756 5754 5751 5749
5739 5740 5741 5743 5744 5746 5748 5749 5751 5754 5754 5754 5755 5756 5757 5757 5759 5759 5760 5760 5760 5761 5761 5761 5762 5762 5762 5763 5763 5762 5762 5762 5761 5760 5759 5758 5757 5756 5754 5752 5750 5748 5745 5743
5731 5733 5734 5736 5737 5741 5741 5742 5744 5745 5746 5747 5748 5749 5750 5750 5751 5752 5753 5753 5754 5754 5754 5755 5755 5755 5755 5755 5755 5756 5756 5755 5755 5754 5753 5752 5750 5749 5747 5745 5743 5741 5739 5737
5724 5727 5728 5730 5733 5733 5733 5735 5736 5737 5739 5741 5742 5742 5743 5744 5744 5745 5745 5746 5746 5747 5747 5747 5748 5748 5748 5748 5748 5748 5748 5748 5748 5747 5746 5745 5743 5742 5740 5739 5737 5735 5733 5731
5718 5719 5721 5723 5724 5725 5726 5728 5729 5730 5732 5733 5734 5735 5736 5737 5737 5738 5738 5738 5739 5739 5740 5740 5740 5740 5741 5741 5741 5741 5741 5740 5740 5740 5739 5738 5736 5735 5734 5732 5730 5728 5726 5725
5711 5713 5714 5715 5717 5718 5720 5721 5722 5724 5725 5726 5727 5728 5729 5729 5730 5730 5731 5731 5731 5732 5732 5732 5732 5732 5732 5733 5733 5733 5733 5733 5733 5732 5731 5730 5729 5728 5726 5725 5723 5721 5720 5718
5704 5706 5707 5708 5710 5712 5713 5714 5715 5716 5717 5718 5719 5720 5721 5722 5722 5722 5723 5723 5723 5724 5724 5724 5724 5724 5724 5725 5725 5725 5725 5725 5725 5725 5724 5723 5722 5720 5719 5718 5716 5714 5713 5711
Wind_Speed
19 19 18 18 18 18 18 18 18 17 16 18 19 19 19 17 16 14 13 14 14 15 16 15 14 15 15 14 14 14 15 15 14 13 13 12 13 13 14 14 13 13 14 13
19 18 17 18 19 19 18 18 18 18 17 18 18 18 18 18 16 15 14 14 14 15 15 15 15 15 14 14 14 14 15 14 14 13 12 12 13 13 14 14 13 12 13 13
19 17 18 19 19 19 18 18 18 17 17 18 19 20 19 19 18 16 15 15 14 14 14 14 14 14 14 14 14 14 15 14 14 14 14 14 14 14 14 14 14 14 14 14
19 18 18 19 19 18 18 17 19 18 19 20 20 22 20 19 18 17 15 15 14 12 12 13 13 13 13 14 14 14 15 14 13 13 13 14 14 14 14 14 15 14 14 15
19 19 19 18 18 19 17 18 21 21 21 22 22 23 21 21 19 18 16 13 13 13 11 11 12 12 13 14 14 14 14 13 13 12 13 13 14 14 14 14 15 15 15 15
17 18 18 17 17 18 18 19 21 22 23 23 22 23 21 20 19 17 14 13 12 13 12 12 12 12 13 13 13 13 12 13 13 13 13 13 13 13 14 14 15 16 16 16
16 17 17 17 18 18 19 19 20 21 23 23 21 23 22 21 18 17 16 15 13 13 13 13 12 13 13 12 12 12 12 13 13 13 13 13 13 14 14 15 15 16 16 16
17 17 17 18 19 18 19 19 21 22 21 22 21 22 20 20 19 18 18 16 15 14 13 13 13 13 13 12 12 12 12 13 13 13 13 14 14 14 14 14 14 15 15 16
19 17 17 19 19 20 20 21 20 22 22 22 23 23 21 19 20 19 18 17 15 15 14 14 15 13 12 12 11 12 13 13 13 13 14 14 14 14 14 14 14 15 15 16
20 19 18 19 20 20 22 21 21 22 24 24 22 21 20 20 20 19 17 16 16 15 16 15 15 15 14 13 13 13 13 13 13 14 14 14 14 14 15 15 15 15 16 16
21 21 19 20 22 21 22 22 22 22 23 24 23 22 20 20 20 19 18 18 17 17 17 17 17 17 15 15 15 15 14 13 14 15 14 14 14 15 15 16 15 16 15 16
22 21 21 21 21 22 21 21 21 22 23 24 25 23 21 21 20 18 19 19 19 18 18 18 18 18 17 17 16 15 15 14 15 15 15 16 16 16 16 15 15 16 15 16
23 23 22 20 21 21 22 21 21 22 24 24 24 23 22 23 21 19 19 19 19 19 18 18 19 19 18 17 16 15 15 15 16 16 16 16 16 16 16 15 16 16 16 17
23 24 24 22 20 22 24 24 23 23 25 25 24 22 22 23 22 21 22 21 20 20 19 19 19 18 18 18 18 17 16 16 16 16 16 15 16 16 16 16 17 17 17 17
25 25 24 22 21 22 24 25 25 25 25 25 24 23 23 21 22 22 23 22 21 20 19 19 19 18 19 20 19 19 16 16 16 16 16 16 17 16 16 17 18 18 18 19
26 25 25 24 24 24 25 25 25 25 24 25 25 24 22 22 22 23 22 22 21 20 19 19 18 19 19 20 20 19 18 17 17 17 18 18 18 17 17 18 18 18 19 19
27 25 26 25 25 25 25 24 24 23 23 24 24 24 22 22 22 22 22 22 21 21 20 19 19 19 19 19 20 19 19 19 19 20 19 19 18 18 19 19 19 19 19 19
26 26 27 26 25 26 24 24 25 25 25 25 25 24 23 23 23 24 24 23 23 21 20 20 19 19 19 19 20 19 20 20 20 19 19 19 19 19 19 19 19 20 20 19
26 26 26 26 26 25 26 25 25 24 25 25 25 25 24 24 24 25 23 23 23 23 22 21 19 20 21 21 21 21 21 20 20 20 20 20 20 19 19 19 20 20 20 20
26 26 26 26 26 25 25 26 26 27 27 26 25 25 24 23 24 23 23 22 22 21 21 21 20 21 21 22 21 21 21 21 21 21 20 20 20 20 20 20 20 20 20 20
24 25 25 26 26 25 25 25 25 26 26 25 24 24 23 23 23 22 22 22 22 22 22 21 22 22 22 21 21 21 22 22 22 21 21 20 21 21 20 20 19 20 19 19
23 23 24 24 24 24 24 25 25 25 23 23 23 23 24 24 23 23 23 23 23 23 24 24 24 23 23 22 22 22 22 22 22 22 22 21 21 21 21 20 20 19 19 19
22 23 23 23 23 23 23 25 25 24 23 23 24 24 24 25 25 24 23 23 24 25 25 24 25 25 24 24 23 23 23 22 22 22 22 21 22 21 21 21 21 20 20 20
22 23 23 24 24 22 23 24 24 24 23 24 24 25 24 24 24 24 24 24 25 26 27 26 25 25 25 24 24 23 24 24 23 23 23 22 21 21 21 21 21 20 20 20
22 23 24 24 25 25 24 24 23 23 24 24 23 24 24 24 24 24 24 24 25 25 25 25 25 25 25 24 24 24 24 23 23 23 23 22 22 22 21 22 21 21 21 21
22 22 22 23 24 24 23 24 23 23 23 23 23 23 24 24 24 24 24 25 25 25 24 24 24 24 24 23 23 23 22 23 23 22 22 22 22 22 23 22 21 20 20 20
Wind_Direction
235 238 238 241 241 245 243 241 239 239 242 249 256 259 264 267 276 282 280 282 285 290 291 288 283 281 285 289 289 290 294 296 297 299 302 302 304 307 310 311 311 311 309 305
239 240 239 238 239 243 244 242 243 242 242 247 254 259 261 265 272 276 278 281 283 287 291 288 287 286 288 290 289 291 294 297 297 295 297 297 299 304 308 308 306 308 311 307
240 239 239 240 241 242 242 243 244 243 239 243 253 258 260 262 264 269 275 280 282 285 286 290 290 288 289 290 293 297 298 300 301 299 295 295 297 300 303 304 305 304 307 304
236 235 238 239 241 245 241 241 241 238 237 241 247 253 252 258 260 266 272 277 279 283 287 293 293 289 289 290 292 294 297 297 299 300 296 294 293 296 298 299 300 301 301 301
237 236 238 240 244 247 246 242 240 239 240 242 243 248 250 254 256 261 265 268 275 283 287 287 289 291 290 290 290 290 293 296 297 299 304 296 294 294 295 297 300 302 301 299
235 235 238 241 242 246 248 244 241 242 240 242 245 250 251 251 255 258 263 268 275 280 277 280 283 285 289 292 289 288 292 297 297 299 302 301 297 297 297 299 301 302 300 299
236 238 240 239 241 243 246 244 242 241 239 243 249 253 252 249 251 259 264 266 268 272 275 277 275 277 282 286 288 289 293 296 299 300 299 302 300 301 299 298 300 301 301 300
244 240 243 246 246 245 247 248 248 251 250 249 251 254 252 249 252 258 260 261 262 269 273 276 275 276 276 276 281 287 294 295 297 298 297 296 299 301 301 300 299 299 301 302
252 248 243 246 245 244 246 247 250 252 255 254 253 253 251 252 257 255 255 257 264 272 275 281 280 274 273 270 273 284 292 295 297 300 298 294 297 298 299 300 300 300 301 302
253 251 244 242 243 243 246 248 250 251 251 253 252 253 255 256 256 257 260 261 268 269 272 275 277 276 275 271 275 282 289 293 296 299 301 296 296 297 298 299 301 302 302 303
249 253 245 242 242 242 245 247 248 251 253 254 256 259 258 258 257 258 263 264 267 265 267 269 271 276 275 278 281 284 287 292 294 296 297 297 295 297 300 300 301 303 304 305
252 254 247 240 242 246 247 247 247 249 250 254 257 257 257 260 260 263 266 263 262 259 263 268 270 273 277 279 279 280 284 290 292 294 294 294 295 298 300 301 301 303 305 306
254 252 248 242 243 243 244 246 249 252 254 256 258 257 255 257 262 265 262 259 260 260 263 265 267 270 274 279 279 282 287 289 290 294 295 294 293 294 295 297 300 303 305 307
250 249 249 249 247 243 242 245 247 252 254 258 260 257 259 260 263 262 258 256 260 262 264 266 267 268 271 272 278 284 286 286 288 290 293 294 295 293 293 295 298 302 304 304
248 248 250 247 246 245 243 245 247 251 254 259 260 261 263 263 263 263 257 255 257 260 264 266 267 267 267 269 275 281 283 283 284 286 289 291 294 296 295 295 296 298 300 302
250 248 248 247 248 247 245 246 251 253 255 257 257 258 262 261 265 265 261 258 258 261 263 264 267 267 266 268 272 279 280 280 280 282 285 287 288 292 294 294 297 297 298 300
249 249 247 247 249 250 249 249 249 250 253 254 256 257 259 261 263 264 262 257 257 262 264 262 265 268 267 268 274 278 279 280 280 280 282 283 284 287 290 293 295 295 297 298
250 250 251 251 247 248 249 250 250 251 253 255 256 256 257 261 264 268 266 261 261 261 261 263 263 266 268 269 274 276 277 278 279 280 282 285 285 287 291 293 294 294 294 296
249 250 251 250 249 251 250 250 250 252 253 254 257 258 259 263 267 269 267 266 265 264 263 264 265 269 270 271 273 273 273 275 276 277 280 284 287 288 290 291 291 293 294 293
247 247 249 249 250 251 249 250 251 251 252 254 257 258 261 265 266 266 266 265 266 263 263 263 265 269 271 271 271 271 272 274 274 276 278 281 285 288 290 291 291 290 293 292
245 247 248 249 252 253 251 251 252 254 256 256 257 259 262 265 266 266 264 263 265 263 263 264 265 267 268 268 268 270 270 272 273 275 277 279 283 286 289 291 290 290 290 291
244 244 246 249 252 252 252 252 254 256 257 256 258 261 262 263 264 265 265 263 262 262 263 264 266 266 267 267 268 269 270 272 274 276 278 279 282 283 286 288 290 290 290 289
246 245 246 250 253 254 254 253 253 253 255 256 257 260 263 261 262 262 264 265 264 263 263 265 266 266 267 266 267 269 270 272 274 275 277 277 280 281 283 285 286 286 287 286
247 248 249 250 251 253 254 254 252 252 253 253 255 259 262 262 263 264 265 266 264 261 262 266 267 267 268 268 268 270 272 273 274 274 277 278 281 283 285 285 284 285 284 285
245 247 248 249 250 254 256 257 256 254 252 253 255 256 260 262 263 265 267 267 266 266 263 264 266 265 265 264 266 269 270 272 273 275 278 281 283 286 285 287 286 283 282 282
243 245 246 248 250 252 254 254 256 256 255 255 257 258 258 260 262 264 265 266 266 266 266 267 264 264 262 262 264 265 267 270 273 277 280 282 282 283 285 286 283 282 282 282